This is the latest recevied weather packets stored in our database for station/object KGRR-WX. If no packets are shown the sender has not sent any weather packets the latest 10 day(s).
| Time | Temp. | Humidity | Pressure | Rain* | Wind** | Luminosity | Snow |
|---|---|---|---|---|---|---|---|
| 1777717821 | -0.56° C | 89% | 990.1 hPa | 0 mm | - | - | - |
| 1777716906 | -0.56° C | 89% | 990.1 hPa | 0 mm | - | - | - |
| 1777716025 | -0.56° C | 89% | 990.1 hPa | 0 mm | - | - | - |
| 1777715105 | -0.56° C | 88% | 989.3 hPa | 0 mm | - | - | - |
| 1777713305 | -0.56° C | 89% | 989.6 hPa | 0 mm | - | - | - |
| 1777712424 | -0.56° C | 89% | 989.6 hPa | 0 mm | - | - | - |
| 1777711504 | -0.56° C | 87% | 989.3 hPa | 0 mm | - | - | - |
| 1777710621 | -0.56° C | 86% | 989.5 hPa | 0 mm | - | - | - |
| 1777709706 | -0.56° C | 86% | 989.5 hPa | 0 mm | - | - | - |
| 1777708825 | -0.56° C | 86% | 989.5 hPa | 0 mm | - | - | - |
| 1777707905 | -0.56° C | 78% | 989 hPa | 0 mm | - | - | - |
| 1777707014 | 0° C | 78% | 989 hPa | 0 mm | - | - | - |
| 1777706106 | -0.56° C | 78% | 989 hPa | 0 mm | - | - | - |
| 1777705218 | 0° C | 78% | 989 hPa | 0 mm | - | - | - |
| 1777704306 | 0° C | 73% | 990 hPa | 0 mm | - | - | - |
| 1777703422 | 0° C | 76% | 989.9 hPa | 0 mm | - | - | - |
| 1777702506 | 0° C | 76% | 989.9 hPa | 0 mm | - | - | - |
| 1777701625 | 0° C | 76% | 989.9 hPa | 0 mm | - | - | - |
| 1777700706 | 0.56° C | 72% | 989.2 hPa | 0 mm | - | - | - |
| 1777699821 | 0.56° C | 74% | 989.6 hPa | 0 mm | - | - | - |
| 1777698905 | 0.56° C | 74% | 989.6 hPa | 0 mm | - | - | - |
| 1777698024 | 0.56° C | 74% | 989.6 hPa | 0 mm | - | - | - |
| 1777697106 | 1.11° C | 70% | 989.1 hPa | 0 mm | - | - | - |
| 1777696221 | 1.11° C | 72% | 989.3 hPa | 0 mm | - | - | - |
| 1777695305 | 1.11° C | 72% | 989.3 hPa | 0 mm | - | - | - |
* Rain latest hour (hover to see other rain measurements)
** Current wind speed in m/s (hover to see current wind gust speed)